GW2042 Weather Reports


Display with metric or nautical units.
time (UTC)temp
F
wind
direction
speed
MPH
gust
MPH
rain 1hr
in
rain 24hr
in
rain mn
in
humidity
%
barometer
mb
20260906021020 84 121 0.0 2.0 0.00 0.00 0.00 53 1013.3
20260906020042 85 0 0.0 3.0 0.00 0.00 0.00 52 1013.2
20260906014545 85 0 0.0 1.0 0.00 0.00 0.00 51 1013.0
20260906014020 86 0 0.0 1.0 0.00 0.00 0.00 51 1012.9
20260906013526 86 0 0.0 1.0 0.00 0.00 0.00 51 1012.8
20260906013036 86 0 0.0 2.0 0.00 0.00 0.00 50 1012.8
20260906011552 87 0 0.0 3.0 0.00 0.00 0.00 49 1012.7
20260906010524 87 0 0.0 1.0 0.00 0.00 0.00 48 1012.7
20260906010100 88 0 0.0 1.0 0.00 0.00 0.00 48 1012.7
20260906005517 88 0 0.0 1.0 0.00 0.00 0.00 47 1012.7
20260906005021 89 0 0.0 5.0 0.00 0.00 0.00 46 1012.6
20260906004545 90 0 0.0 5.0 0.00 0.00 0.00 45 1012.5
20260906003045 92 71 0.0 6.0 0.00 0.00 0.00 42 1012.4
20260906002018 93 126 2.0 8.0 0.00 0.00 0.00 41 1012.4
20260906001558 93 119 3.0 8.0 0.00 0.00 0.00 41 1012.3
20260906001022 93 101 1.0 8.0 0.00 0.00 0.00 40 1012.2
20260906000520 94 130 3.0 8.0 0.00 0.00 0.00 40 1012.1
20260906000039 94 101 3.0 8.0 0.00 0.00 0.00 39 1012.1
20260905235519 94 154 2.0 10.0 0.00 0.00 0.00 39 1012.3
20260905235022 95 117 2.0 10.0 0.00 0.00 0.00 39 1012.2
20260905234541 95 140 3.0 10.0 0.00 0.00 0.00 38 1012.2
20260905232522 97 114 2.0 9.0 0.00 0.00 0.00 36 1012.1
20260905231544 98 92 1.0 7.0 0.00 0.00 0.00 35 1012.0
20260905231020 97 130 3.0 7.0 0.00 0.00 0.00 35 1012.0
20260905230517 97 0 2.0 7.0 0.00 0.00 0.00 35 1012.1
20260905230044 98 139 1.0 6.0 0.00 0.00 0.00 35 1012.1
20260905224543 97 133 2.0 8.0 0.00 0.00 0.00 35 1012.1
20260905224021 98 140 3.0 8.0 0.00 0.00 0.00 34 1012.1
20260905223518 97 171 3.0 10.0 0.00 0.00 0.00 35 1012.1
20260905223040 97 143 4.0 10.0 0.00 0.00 0.00 35 1012.0
20260905222517 98 67 0.0 4.0 0.00 0.00 0.00 34 1012.1
20260905221541 99 101 1.0 9.0 0.00 0.00 0.00 33 1012.3
20260905221022 100 86 2.0 9.0 0.00 0.00 0.00 32 1012.4
20260905220520 101 165 1.0 9.0 0.00 0.00 0.00 32 1012.4
20260905220039 100 150 2.0 10.0 0.00 0.00 0.00 32 1012.4
20260905215519 99 104 3.0 10.0 0.00 0.00 0.00 34 1012.4
20260905215016 98 88 2.0 8.0 0.00 0.00 0.00 34 1012.5
20260905214538 98 250 2.0 5.0 0.00 0.00 0.00 33 1012.5
20260905213520 98 217 2.0 9.0 0.00 0.00 0.00 33 1012.5
20260905213050 98 162 1.0 9.0 0.00 0.00 0.00 33 1012.6
20260905212520 99 103 2.0 7.0 0.00 0.00 0.00 32 1012.7
20260905212019 98 128 1.0 7.0 0.00 0.00 0.00 34 1012.8
20260905211545 99 107 3.0 7.0 0.00 0.00 0.00 34 1012.7
20260905211020 99 166 3.0 9.0 0.00 0.00 0.00 33 1012.6
20260905210518 98 153 0.0 9.0 0.00 0.00 0.00 34 1012.8
20260905210039 98 79 3.0 11.0 0.00 0.00 0.00 34 1012.8
20260905205518 99 127 5.0 11.0 0.00 0.00 0.00 33 1012.9
20260905205017 100 150 2.0 6.0 0.00 0.00 0.00 31 1012.9
20260905203051 100 207 3.0 8.0 0.00 0.00 0.00 32 1013.4
20260905202526 99 69 2.0 8.0 0.00 0.00 0.00 33 1013.4
20260905202020 99 206 2.0 7.0 0.00 0.00 0.00 33 1013.5
20260905201553 97 117 1.0 12.0 0.00 0.00 0.00 34 1013.5
20260905201019 99 300 3.0 12.0 0.00 0.00 0.00 32 1013.5
20260905200520 99 137 3.0 10.0 0.00 0.00 0.00 33 1013.7
20260905200038 100 184 3.0 9.0 0.00 0.00 0.00 32 1013.8
20260905195517 99 209 3.0 8.0 0.00 0.00 0.00 33 1013.8
20260905195021 98 132 1.0 6.0 0.00 0.00 0.00 34 1014.0
20260905194538 98 45 2.0 6.0 0.00 0.00 0.00 33 1014.0
20260905194019 97 128 3.0 9.0 0.00 0.00 0.00 33 1014.1
20260905193040 99 193 3.0 8.0 0.00 0.00 0.00 33 1014.3
20260905192020 99 88 3.0 13.0 0.00 0.00 0.00 32 1014.3
20260905191536 97 120 2.0 13.0 0.00 0.00 0.00 34 1014.4
20260905191020 99 152 3.0 10.0 0.00 0.00 0.00 32 1014.6
20260905190517 99 70 4.0 10.0 0.00 0.00 0.00 32 1014.7
20260905190040 99 137 4.0 8.0 0.00 0.00 0.00 34 1014.7
20260905185517 97 236 1.0 10.0 0.00 0.00 0.00 33 1014.7
20260905185018 97 180 3.0 11.0 0.00 0.00 0.00 33 1015.0
20260905184546 98 204 3.0 11.0 0.00 0.00 0.00 34 1015.0
20260905184019 97 209 5.0 10.0 0.00 0.00 0.00 34 1015.1
20260905183053 97 211 4.0 10.0 0.00 0.00 0.00 35 1015.2
20260905182523 95 328 2.0 7.0 0.00 0.00 0.00 37 1015.3
20260905182022 97 100 3.0 7.0 0.00 0.00 0.00 35 1015.4
20260905181539 97 161 3.0 9.0 0.00 0.00 0.00 36 1015.5
20260905181018 96 226 3.0 9.0 0.00 0.00 0.00 36 1015.6
20260905175520 97 238 2.0 9.0 0.00 0.00 0.00 36 1015.9
20260905175020 97 180 3.0 11.0 0.00 0.00 0.00 36 1015.9
20260905174540 96 126 5.0 11.0 0.00 0.00 0.00 37 1015.9
20260905174020 96 165 1.0 5.0 0.00 0.00 0.00 38 1016.0
20260905173517 94 109 2.0 7.0 0.00 0.00 0.00 39 1016.0
20260905173037 94 309 2.0 7.0 0.00 0.00 0.00 37 1016.1
20260905172516 97 173 2.0 7.0 0.00 0.00 0.00 37 1016.2
20260905172019 96 161 2.0 8.0 0.00 0.00 0.00 38 1016.2
20260905165020 94 82 3.0 10.0 0.00 0.00 0.00 40 1016.4
20260905164539 94 136 4.0 10.0 0.00 0.00 0.00 41 1016.4
20260905164018 92 151 1.0 8.0 0.00 0.00 0.00 43 1016.4
20260905163523 93 0 2.0 10.0 0.00 0.00 0.00 42 1016.4
20260905161540 92 148 2.0 8.0 0.00 0.00 0.00 43 1016.4
20260905161021 92 144 2.0 7.0 0.00 0.00 0.00 45 1016.3
20260905160521 91 187 2.0 7.0 0.00 0.00 0.00 45 1016.3
20260905160040 91 134 2.0 8.0 0.00 0.00 0.00 44 1016.3
20260905155519 91 141 3.0 8.0 0.00 0.00 0.00 44 1016.3
20260905155020 91 221 2.0 6.0 0.00 0.00 0.00 43 1016.2
20260905154538 90 200 2.0 7.0 0.00 0.00 0.00 46 1016.3
20260905152518 88 238 1.0 4.0 0.00 0.00 0.00 50 1016.2
20260905152018 88 194 1.0 6.0 0.00 0.00 0.00 49 1016.3
20260905151539 87 232 2.0 6.0 0.00 0.00 0.00 52 1016.2
20260905151020 87 244 3.0 7.0 0.00 0.00 0.00 50 1016.2
20260905150517 87 222 2.0 7.0 0.00 0.00 0.00 52 1016.2
20260905150039 86 235 2.0 6.0 0.00 0.00 0.00 56 1016.2
20260905145516 85 233 3.0 6.0 0.00 0.00 0.00 59 1016.2
20260905145018 85 191 1.0 5.0 0.00 0.00 0.00 62 1016.3
20260905143037 82 240 1.0 6.0 0.00 0.00 0.00 69 1016.3
20260905142518 81 223 3.0 6.0 0.00 0.00 0.00 71 1016.3
20260905142017 81 208 2.0 5.0 0.00 0.00 0.00 73 1016.2
20260905141537 80 229 2.0 7.0 0.00 0.00 0.00 74 1016.2
20260905135521 79 223 1.0 5.0 0.00 0.03 0.00 79 1016.1
20260905135019 78 153 1.0 5.0 0.00 0.03 0.00 81 1016.1
20260905134545 77 141 1.0 4.0 0.00 0.03 0.00 82 1016.1
20260905134020 76 121 1.0 3.0 0.00 0.03 0.00 83 1016.1
20260905133519 75 0 0.0 3.0 0.00 0.03 0.00 85 1016.1
20260905133038 74 0 0.0 2.0 0.00 0.03 0.00 86 1016.0
20260905132518 74 0 0.0 2.0 0.00 0.03 0.00 87 1016.0
20260905132018 73 0 0.0 1.0 0.00 0.03 0.00 87 1015.9
20260905125518 71 121 0.0 2.0 0.00 0.05 0.00 89 1015.8
20260905125020 71 0 0.0 1.0 0.00 0.05 0.00 90 1015.7
20260905124538 71 0 0.0 1.0 0.00 0.05 0.00 90 1015.5
20260905124017 71 0 0.0 0.0 0.00 0.05 0.00 90 1015.5
20260905123518 71 0 0.0 1.0 0.00 0.05 0.00 90 1015.5
20260905123036 71 0 0.0 2.0 0.00 0.05 0.00 90 1015.5
20260905122516 71 0 0.0 2.0 0.00 0.05 0.00 90 1015.4
20260905120038 70 0 0.0 0.0 0.00 0.05 0.00 90 1015.3
20260905114545 71 0 0.0 0.0 0.00 0.05 0.00 88 1015.3
20260905113041 71 0 0.0 1.0 0.00 0.05 0.00 88 1015.3
20260905111548 71 0 0.0 1.0 0.00 0.05 0.00 88 1015.3
20260905110520 71 0 0.0 0.0 0.00 0.05 0.00 88 1015.3
20260905110043 71 0 0.0 0.0 0.00 0.05 0.00 88 1015.3
20260905104542 71 0 0.0 1.0 0.00 0.05 0.00 88 1015.3
20260905103041 71 0 0.0 0.0 0.00 0.05 0.00 89 1015.3
20260905102020 71 0 0.0 0.0 0.00 0.05 0.00 87 1015.2
20260905101539 71 0 0.0 0.0 0.00 0.05 0.00 87 1015.2
20260905101019 71 0 0.0 0.0 0.00 0.05 0.00 87 1015.1
20260905100519 71 0 0.0 0.0 0.00 0.05 0.00 87 1015.2
20260905100042 71 0 0.0 0.0 0.00 0.05 0.00 86 1015.2
20260905095520 72 0 0.0 0.0 0.00 0.05 0.00 86 1015.2
20260905095021 72 0 0.0 0.0 0.00 0.05 0.00 87 1015.1
20260905094542 71 0 0.0 0.0 0.00 0.05 0.00 86 1015.1
20260905093037 72 0 0.0 0.0 0.00 0.05 0.00 84 1015.1
20260905092020 73 0 0.0 1.0 0.00 0.05 0.00 84 1015.1
20260905091539 73 0 0.0 1.0 0.00 0.05 0.00 83 1015.1
20260905091021 73 0 0.0 2.0 0.00 0.05 0.00 84 1015.1
20260905090518 73 0 0.0 2.0 0.00 0.05 0.00 84 1015.2
20260905090103 72 0 0.0 2.0 0.00 0.05 0.00 84 1015.1
20260905084538 73 0 0.0 0.0 0.00 0.05 0.00 82 1015.1
20260905083035 74 0 0.0 2.0 0.00 0.05 0.00 81 1015.0
20260905082523 74 0 0.0 2.0 0.00 0.05 0.00 81 1015.0
20260905082017 74 121 0.0 2.0 0.00 0.05 0.00 81 1015.0
20260905081543 74 0 0.0 2.0 0.00 0.05 0.00 81 1014.9
20260905080041 74 0 0.0 4.0 0.00 0.05 0.00 81 1015.0
20260905074544 74 0 0.0 0.0 0.00 0.05 0.00 80 1015.1
20260905074020 75 0 0.0 0.0 0.00 0.05 0.00 80 1015.2
20260905073521 75 0 0.0 0.0 0.00 0.05 0.00 79 1015.2
20260905073044 75 0 0.0 1.0 0.00 0.05 0.00 79 1015.2
20260905072520 75 0 0.0 1.0 0.00 0.05 0.00 79 1015.2
20260905072023 75 0 0.0 1.0 0.00 0.05 0.00 78 1015.3
20260905071537 75 0 0.0 1.0 0.00 0.05 0.00 78 1015.3
20260905071020 75 0 0.0 2.0 0.00 0.05 0.00 77 1015.3
20260905070045 76 162 0.0 4.0 0.00 0.05 0.00 76 1015.4
20260905064540 76 0 0.0 3.0 0.00 0.05 0.00 75 1015.5
20260905063518 77 0 0.0 4.0 0.00 0.05 0.00 74 1015.6
20260905063039 77 0 0.0 4.0 0.00 0.05 0.00 74 1015.6
20260905062519 78 151 0.0 4.0 0.00 0.05 0.00 73 1015.5
20260905062018 78 0 1.0 4.0 0.00 0.05 0.00 73 1015.5
20260905061541 78 157 1.0 6.0 0.00 0.05 0.00 73 1015.4
20260905061017 78 154 2.0 6.0 0.00 0.05 0.00 72 1015.4
20260905060517 78 169 2.0 7.0 0.00 0.05 0.00 72 1015.4
20260905060046 78 150 2.0 7.0 0.00 0.05 0.00 72 1015.3
20260905054541 78 153 1.0 6.0 0.00 0.05 0.00 71 1015.3
20260905053042 79 140 1.0 5.0 0.00 0.05 0.00 70 1015.3
20260905052024 79 155 1.0 6.0 0.00 0.05 0.00 69 1015.3
20260905051537 79 164 1.0 5.0 0.00 0.05 0.00 69 1015.4
20260905051018 80 155 1.0 5.0 0.00 0.05 0.00 68 1015.3
20260905050518 80 153 1.0 5.0 0.00 0.05 0.00 68 1015.3
20260905050040 80 175 1.0 5.0 0.00 0.05 0.00 68 1015.3
20260905045523 80 157 1.0 5.0 0.00 0.05 0.05 67 1015.2
20260905045017 80 155 1.0 5.0 0.00 0.05 0.05 67 1015.2
20260905044541 81 161 1.0 5.0 0.00 0.05 0.05 66 1015.1
20260905043040 81 141 2.0 8.0 0.00 0.05 0.05 65 1015.2
20260905042020 82 185 3.0 9.0 0.00 0.05 0.05 64 1015.3
20260905041548 82 165 2.0 9.0 0.00 0.05 0.05 64 1015.3
20260905041019 82 134 3.0 7.0 0.00 0.05 0.05 63 1015.3
20260905040040 83 149 3.0 10.0 0.00 0.05 0.05 62 1015.2
20260905034547 83 159 4.0 10.0 0.00 0.05 0.05 60 1015.2
20260905033519 84 157 4.0 10.0 0.00 0.05 0.05 59 1015.0
20260905033038 84 190 4.0 10.0 0.00 0.05 0.05 59 1015.0
20260905032518 84 141 3.0 11.0 0.00 0.05 0.05 58 1015.0
20260905032019 84 145 4.0 11.0 0.00 0.05 0.05 58 1014.8
20260905031538 84 147 4.0 10.0 0.00 0.05 0.05 57 1014.8
20260905030043 85 157 3.0 9.0 0.00 0.05 0.05 56 1014.7
20260905024020 85 132 3.0 8.0 0.00 0.05 0.05 54 1014.2
20260905023518 86 150 3.0 8.0 0.00 0.05 0.05 54 1014.3
20260905022519 86 151 3.0 7.0 0.00 0.05 0.05 53 1014.1
20260905022021 87 155 3.0 8.0 0.00 0.05 0.05 53 1014.0
20260905021537 87 164 4.0 8.0 0.00 0.05 0.05 52 1013.8